ARIANE 1 DEB

Satellite information

Favourite Embed

Satellite Type and Status

DEBRISIN ORBIT

Key statistics

Satellite ARIANE 1 DEB at a glance.

Uptime

16633

Days in orbit

Revolutions

≈ 10.1

Per day

Orbit

MEO

Medium Earth Orbit

Inclination

17.8

Latest

Satellite identification and parameters

Extended collection of information and parameters for ARIANE 1 DEB.

Object identification

Identified? True

Debris? True

Object name: ARIANE 1 DEB

International designator: 1979-104J

Object number (NORAD): 25767

Object ID (CCSDS): 25767

Country: FRANCE (FR)

Current information (Y/N): Y

RCS size: MEDIUM

Orbital parameters

Period: 142.552 minutes

Inclination: 17.8044 deg

SMA: 9039.477 km

Apoapsis: 5008.519 km

Periapsis: 314.164 km

RAAN: 213.1428 deg

Eccentricy: 0.2596586

Argument of periapsis: 125.3362 deg

Mean anomaly: 261.8035 deg

Mean motion: 10.10154569 rev/day

Mean motion (dot): 0.00029602 rev/day2

B* drag term: 0.0020107 1/REarth

Two-line elements (TLE)

Creation date: July 6, 2025, 6:05 p.m.

Reference frame: TEME

Reference center: EARTH

Epoch: July 6, 2025, 6:35 a.m. UTC

TLE line 0: 0 ARIANE 1 DEB

TLE line 1: 1 25767U 79104J 25187.27469945 .00029602 00000-0 20107-2 0 9998

TLE line 2: 2 25767 17.8044 213.1428 2596586 125.3362 261.8035 10.10154569347390

Live tracking on map

Real-time ground track for satellite ARIANE 1 DEB.

In-orbit conjunctions

A list of the most updated potential collisions computed for object ARIANE 1 DEB.

Target Orbit TCA Probability of collision Miss distance Type
ATLAS F R/B HEO 2024-09-11 16:25:58 TBA 4275.0 (m) ROCKET BODY

Associated space launch

Vehicle evaluation payload for the Ariane 1 launch vehicle

ARIANE 1 DEB was lifted into orbit during the mission ‘Ariane 1 | CAT 1’, on board a Ariane 1 space rocket.

The launch took place on Dec. 24, 1979, 5:14 p.m. from Ariane Launch Area 1 (ELV).

For more information about the launch, click the button.

Launch to space Ariane 1 | CAT 1
Ariane 1 | CAT 1

Agency: N/A

Status: Launch Successful

Launch date: Dec. 24, 1979, 5:14 p.m. UTC

Rocket: Ariane 1

Launch pad: Ariane Launch Area 1 (ELV)

Location: Guiana Space Centre, French Guiana

...

Latest news about this satellite

There are no fresh news available about this satellite. Check back as we update our databases every day.


Newsletter sign-up

Weekly statistics, charts and insights to help you stay on top of the space industry.